<?xml version="1.0" encoding="UTF-8" standalone="no" ?>
<gpx xmlns="http://www.topografix.com/GPX/1/1" xmlns:xsi="http://www.w3.org/2001/XMLSchema-instance" xsi:schemaLocation="http://www.topografix.com/GPX/1/1 http://www.topografix.com/GPX/1/1/gpx.xsd" version="1.1" creator="VisuGPX - https://www.visugpx.com">
  <metadata>
    <name>Roques-Hautes - VTT / Très difficile</name>
    <desc><![CDATA[Le domaine de Roques-Hautes, labellisé Parc Départemental, étale ses 800 hectares de relief accidenté sur les communes d%u2019Aix-en-Provence, de Beaurecueil, du Tholonet, de Saint-Antonin-sur-Bayon, et de Saint-Marc Jaumegarde. 
]]></desc>
  </metadata>
  <wpt lat="43.53146" lon="5.51378">
    <ele>260.6</ele>
    <name><![CDATA[Barrage Zola]]></name>
  </wpt>
  <wpt lat="43.52596" lon="5.54113">
    <ele>299.7</ele>
    <name><![CDATA[Carriere de Marbre]]></name>
  </wpt>
  <wpt lat="43.52854" lon="5.5701">
    <ele>458.4</ele>
    <name><![CDATA[Hameau du Trou]]></name>
  </wpt>
  <wpt lat="43.52233" lon="5.54671">
    <ele>251.2</ele>
    <name><![CDATA[Parking de l-Aurigon]]></name>
    <desc><![CDATA[Parking Principal]]></desc>
    <cmt><![CDATA[Parking Principal]]></cmt>
  </wpt>
  <wpt lat="43.52343" lon="5.56776">
    <ele>304.7</ele>
    <name><![CDATA[Parking du Bouquet]]></name>
  </wpt>
  <wpt lat="43.52398" lon="5.56524">
    <ele>305.5</ele>
    <name><![CDATA[Parking du Plan de l-Anchois]]></name>
  </wpt>
  <wpt lat="43.52176" lon="5.52761">
    <ele>224.9</ele>
    <name><![CDATA[Parking du Toscan]]></name>
  </wpt>
  <trk>
    <name><![CDATA[Roques hautes VTT 3 noir]]></name>
    <trkseg>
      <trkpt lat="43.52373" lon="5.54728">
        <ele>260</ele>
        <time>2011-02-17T20:25:43Z</time>
      </trkpt>
      <trkpt lat="43.52371" lon="5.54728">
        <ele>261</ele>
        <time>2011-02-17T20:25:43Z</time>
      </trkpt>
      <trkpt lat="43.52384" lon="5.54741">
        <ele>258</ele>
        <time>2011-02-17T20:25:43Z</time>
      </trkpt>
      <trkpt lat="43.52423" lon="5.54741">
        <ele>260</ele>
        <time>2011-02-17T20:25:43Z</time>
      </trkpt>
      <trkpt lat="43.5253" lon="5.54649">
        <ele>262</ele>
        <time>2011-02-17T20:25:43Z</time>
      </trkpt>
      <trkpt lat="43.52594" lon="5.54511">
        <ele>273</ele>
        <time>2011-02-17T20:25:43Z</time>
      </trkpt>
      <trkpt lat="43.52566" lon="5.54333">
        <ele>288</ele>
        <time>2011-02-17T20:25:43Z</time>
      </trkpt>
      <trkpt lat="43.52584" lon="5.54239">
        <ele>297</ele>
        <time>2011-02-17T20:25:43Z</time>
      </trkpt>
      <trkpt lat="43.52579" lon="5.54104">
        <ele>301</ele>
        <time>2011-02-17T20:25:43Z</time>
      </trkpt>
      <trkpt lat="43.52588" lon="5.53863">
        <ele>327</ele>
        <time>2011-02-17T20:25:43Z</time>
      </trkpt>
      <trkpt lat="43.52556" lon="5.537">
        <ele>320</ele>
        <time>2011-02-17T20:25:43Z</time>
      </trkpt>
      <trkpt lat="43.525" lon="5.53737">
        <ele>307</ele>
        <time>2011-02-17T20:25:43Z</time>
      </trkpt>
      <trkpt lat="43.52519" lon="5.53642">
        <ele>300</ele>
        <time>2011-02-17T20:25:43Z</time>
      </trkpt>
      <trkpt lat="43.52494" lon="5.53529">
        <ele>292</ele>
        <time>2011-02-17T20:25:43Z</time>
      </trkpt>
      <trkpt lat="43.52491" lon="5.53503">
        <ele>289</ele>
        <time>2011-02-17T20:25:43Z</time>
      </trkpt>
      <trkpt lat="43.52491" lon="5.53415">
        <ele>286</ele>
        <time>2011-02-17T20:25:43Z</time>
      </trkpt>
      <trkpt lat="43.52494" lon="5.53338">
        <ele>276</ele>
        <time>2011-02-17T20:25:43Z</time>
      </trkpt>
      <trkpt lat="43.52485" lon="5.53232">
        <ele>275</ele>
        <time>2011-02-17T20:25:43Z</time>
      </trkpt>
      <trkpt lat="43.52433" lon="5.53044">
        <ele>255</ele>
        <time>2011-02-17T20:25:43Z</time>
      </trkpt>
      <trkpt lat="43.52433" lon="5.52868">
        <ele>254</ele>
        <time>2011-02-17T20:25:43Z</time>
      </trkpt>
      <trkpt lat="43.52438" lon="5.52709">
        <ele>273</ele>
        <time>2011-02-17T20:25:43Z</time>
      </trkpt>
      <trkpt lat="43.52442" lon="5.52679">
        <ele>270</ele>
        <time>2011-02-17T20:25:43Z</time>
      </trkpt>
      <trkpt lat="43.52562" lon="5.52381">
        <ele>277</ele>
        <time>2011-02-17T20:25:43Z</time>
      </trkpt>
      <trkpt lat="43.52757" lon="5.52396">
        <ele>298</ele>
        <time>2011-02-17T20:25:43Z</time>
      </trkpt>
      <trkpt lat="43.52822" lon="5.52445">
        <ele>312</ele>
        <time>2011-02-17T20:25:43Z</time>
      </trkpt>
      <trkpt lat="43.52809" lon="5.5232">
        <ele>317</ele>
        <time>2011-02-17T20:25:43Z</time>
      </trkpt>
      <trkpt lat="43.53" lon="5.52331">
        <ele>292</ele>
        <time>2011-02-17T20:25:43Z</time>
      </trkpt>
      <trkpt lat="43.53075" lon="5.52329">
        <ele>292</ele>
        <time>2011-02-17T20:25:43Z</time>
      </trkpt>
      <trkpt lat="43.53157" lon="5.52353">
        <ele>285</ele>
        <time>2011-02-17T20:25:43Z</time>
      </trkpt>
      <trkpt lat="43.53161" lon="5.52353">
        <ele>291</ele>
        <time>2011-02-17T20:25:43Z</time>
      </trkpt>
      <trkpt lat="43.53167" lon="5.52355">
        <ele>287</ele>
        <time>2011-02-17T20:25:43Z</time>
      </trkpt>
      <trkpt lat="43.53174" lon="5.52353">
        <ele>287</ele>
        <time>2011-02-17T20:25:43Z</time>
      </trkpt>
      <trkpt lat="43.5326" lon="5.5231">
        <ele>279</ele>
        <time>2011-02-17T20:25:43Z</time>
      </trkpt>
      <trkpt lat="43.5329" lon="5.52263">
        <ele>271</ele>
        <time>2011-02-17T20:25:43Z</time>
      </trkpt>
      <trkpt lat="43.53296" lon="5.52239">
        <ele>273</ele>
        <time>2011-02-17T20:25:43Z</time>
      </trkpt>
      <trkpt lat="43.53302" lon="5.52117">
        <ele>252</ele>
        <time>2011-02-17T20:25:43Z</time>
      </trkpt>
      <trkpt lat="43.53279" lon="5.52134">
        <ele>252</ele>
        <time>2011-02-17T20:25:43Z</time>
      </trkpt>
      <trkpt lat="43.53279" lon="5.52104">
        <ele>246</ele>
        <time>2011-02-17T20:25:43Z</time>
      </trkpt>
      <trkpt lat="43.53328" lon="5.51984">
        <ele>246</ele>
        <time>2011-02-17T20:25:43Z</time>
      </trkpt>
      <trkpt lat="43.53318" lon="5.51949">
        <ele>245</ele>
        <time>2011-02-17T20:25:43Z</time>
      </trkpt>
      <trkpt lat="43.5332" lon="5.51908">
        <ele>239</ele>
        <time>2011-02-17T20:25:43Z</time>
      </trkpt>
      <trkpt lat="43.53318" lon="5.51868">
        <ele>240</ele>
        <time>2011-02-17T20:25:43Z</time>
      </trkpt>
      <trkpt lat="43.53266" lon="5.51795">
        <ele>244</ele>
        <time>2011-02-17T20:25:43Z</time>
      </trkpt>
      <trkpt lat="43.53272" lon="5.517">
        <ele>249</ele>
        <time>2011-02-17T20:25:43Z</time>
      </trkpt>
      <trkpt lat="43.5327" lon="5.51664">
        <ele>248</ele>
        <time>2011-02-17T20:25:43Z</time>
      </trkpt>
      <trkpt lat="43.53255" lon="5.51638">
        <ele>250</ele>
        <time>2011-02-17T20:25:43Z</time>
      </trkpt>
      <trkpt lat="43.53191" lon="5.51606">
        <ele>255</ele>
        <time>2011-02-17T20:25:43Z</time>
      </trkpt>
      <trkpt lat="43.53084" lon="5.51582">
        <ele>252</ele>
        <time>2011-02-17T20:25:43Z</time>
      </trkpt>
      <trkpt lat="43.53006" lon="5.51535">
        <ele>266</ele>
        <time>2011-02-17T20:25:43Z</time>
      </trkpt>
      <trkpt lat="43.52985" lon="5.51533">
        <ele>262</ele>
        <time>2011-02-17T20:25:43Z</time>
      </trkpt>
      <trkpt lat="43.52981" lon="5.51563">
        <ele>266</ele>
        <time>2011-02-17T20:25:43Z</time>
      </trkpt>
      <trkpt lat="43.52951" lon="5.51589">
        <ele>264</ele>
        <time>2011-02-17T20:25:43Z</time>
      </trkpt>
      <trkpt lat="43.5294" lon="5.51544">
        <ele>261</ele>
        <time>2011-02-17T20:25:43Z</time>
      </trkpt>
      <trkpt lat="43.52974" lon="5.514">
        <ele>274</ele>
        <time>2011-02-17T20:25:43Z</time>
      </trkpt>
      <trkpt lat="43.52796" lon="5.51449">
        <ele>290</ele>
        <time>2011-02-17T20:25:43Z</time>
      </trkpt>
      <trkpt lat="43.5274" lon="5.51479">
        <ele>298</ele>
        <time>2011-02-17T20:25:43Z</time>
      </trkpt>
      <trkpt lat="43.52727" lon="5.51537">
        <ele>306</ele>
        <time>2011-02-17T20:25:43Z</time>
      </trkpt>
      <trkpt lat="43.5273" lon="5.51612">
        <ele>311</ele>
        <time>2011-02-17T20:25:43Z</time>
      </trkpt>
      <trkpt lat="43.52734" lon="5.51651">
        <ele>316</ele>
        <time>2011-02-17T20:25:43Z</time>
      </trkpt>
      <trkpt lat="43.52715" lon="5.51829">
        <ele>324</ele>
        <time>2011-02-17T20:25:43Z</time>
      </trkpt>
      <trkpt lat="43.52693" lon="5.51996">
        <ele>326</ele>
        <time>2011-02-17T20:25:43Z</time>
      </trkpt>
      <trkpt lat="43.52702" lon="5.52114">
        <ele>325</ele>
        <time>2011-02-17T20:25:43Z</time>
      </trkpt>
      <trkpt lat="43.52717" lon="5.52217">
        <ele>328</ele>
        <time>2011-02-17T20:25:43Z</time>
      </trkpt>
      <trkpt lat="43.52738" lon="5.5226">
        <ele>320</ele>
        <time>2011-02-17T20:25:43Z</time>
      </trkpt>
      <trkpt lat="43.52794" lon="5.52333">
        <ele>314</ele>
        <time>2011-02-17T20:25:43Z</time>
      </trkpt>
      <trkpt lat="43.52824" lon="5.52449">
        <ele>311</ele>
        <time>2011-02-17T20:25:43Z</time>
      </trkpt>
      <trkpt lat="43.5285" lon="5.52479">
        <ele>320</ele>
        <time>2011-02-17T20:25:43Z</time>
      </trkpt>
      <trkpt lat="43.52927" lon="5.52587">
        <ele>325</ele>
        <time>2011-02-17T20:25:43Z</time>
      </trkpt>
      <trkpt lat="43.52996" lon="5.52638">
        <ele>334</ele>
        <time>2011-02-17T20:25:43Z</time>
      </trkpt>
      <trkpt lat="43.52948" lon="5.52756">
        <ele>357</ele>
        <time>2011-02-17T20:25:43Z</time>
      </trkpt>
      <trkpt lat="43.52961" lon="5.52786">
        <ele>362</ele>
        <time>2011-02-17T20:25:43Z</time>
      </trkpt>
      <trkpt lat="43.53043" lon="5.52872">
        <ele>363</ele>
        <time>2011-02-17T20:25:43Z</time>
      </trkpt>
      <trkpt lat="43.53146" lon="5.53114">
        <ele>347</ele>
        <time>2011-02-17T20:25:43Z</time>
      </trkpt>
      <trkpt lat="43.53174" lon="5.53147">
        <ele>349</ele>
        <time>2011-02-17T20:25:43Z</time>
      </trkpt>
      <trkpt lat="43.5329" lon="5.53211">
        <ele>367</ele>
        <time>2011-02-17T20:25:43Z</time>
      </trkpt>
      <trkpt lat="43.53352" lon="5.53252">
        <ele>368</ele>
        <time>2011-02-17T20:25:43Z</time>
      </trkpt>
      <trkpt lat="43.53397" lon="5.53293">
        <ele>361</ele>
        <time>2011-02-17T20:25:43Z</time>
      </trkpt>
      <trkpt lat="43.53466" lon="5.53355">
        <ele>365</ele>
        <time>2011-02-17T20:25:43Z</time>
      </trkpt>
      <trkpt lat="43.53483" lon="5.53376">
        <ele>369</ele>
        <time>2011-02-17T20:25:43Z</time>
      </trkpt>
      <trkpt lat="43.53506" lon="5.53522">
        <ele>374</ele>
        <time>2011-02-17T20:25:43Z</time>
      </trkpt>
      <trkpt lat="43.53551" lon="5.53584">
        <ele>370</ele>
        <time>2011-02-17T20:25:43Z</time>
      </trkpt>
      <trkpt lat="43.53646" lon="5.53586">
        <ele>370</ele>
        <time>2011-02-17T20:25:43Z</time>
      </trkpt>
      <trkpt lat="43.53736" lon="5.53514">
        <ele>365</ele>
        <time>2011-02-17T20:25:43Z</time>
      </trkpt>
      <trkpt lat="43.53839" lon="5.53582">
        <ele>365</ele>
        <time>2011-02-17T20:25:43Z</time>
      </trkpt>
      <trkpt lat="43.53822" lon="5.53617">
        <ele>366</ele>
        <time>2011-02-17T20:25:43Z</time>
      </trkpt>
      <trkpt lat="43.53865" lon="5.53741">
        <ele>371</ele>
        <time>2011-02-17T20:25:43Z</time>
      </trkpt>
      <trkpt lat="43.53817" lon="5.53786">
        <ele>373</ele>
        <time>2011-02-17T20:25:43Z</time>
      </trkpt>
      <trkpt lat="43.53783" lon="5.53883">
        <ele>374</ele>
        <time>2011-02-17T20:25:43Z</time>
      </trkpt>
      <trkpt lat="43.53633" lon="5.53887">
        <ele>376</ele>
        <time>2011-02-17T20:25:43Z</time>
      </trkpt>
      <trkpt lat="43.53498" lon="5.53943">
        <ele>376</ele>
        <time>2011-02-17T20:25:43Z</time>
      </trkpt>
      <trkpt lat="43.5344" lon="5.54041">
        <ele>379</ele>
        <time>2011-02-17T20:25:43Z</time>
      </trkpt>
      <trkpt lat="43.53354" lon="5.54106">
        <ele>372</ele>
        <time>2011-02-17T20:25:43Z</time>
      </trkpt>
      <trkpt lat="43.53345" lon="5.54192">
        <ele>362</ele>
        <time>2011-02-17T20:25:43Z</time>
      </trkpt>
      <trkpt lat="43.53302" lon="5.54196">
        <ele>360</ele>
        <time>2011-02-17T20:25:43Z</time>
      </trkpt>
      <trkpt lat="43.53169" lon="5.54155">
        <ele>374</ele>
        <time>2011-02-17T20:25:43Z</time>
      </trkpt>
      <trkpt lat="43.53131" lon="5.542">
        <ele>372</ele>
        <time>2011-02-17T20:25:43Z</time>
      </trkpt>
      <trkpt lat="43.53103" lon="5.54466">
        <ele>351</ele>
        <time>2011-02-17T20:25:43Z</time>
      </trkpt>
      <trkpt lat="43.53118" lon="5.54526">
        <ele>349</ele>
        <time>2011-02-17T20:25:43Z</time>
      </trkpt>
      <trkpt lat="43.53137" lon="5.54483">
        <ele>346</ele>
        <time>2011-02-17T20:25:43Z</time>
      </trkpt>
      <trkpt lat="43.53154" lon="5.54496">
        <ele>342</ele>
        <time>2011-02-17T20:25:43Z</time>
      </trkpt>
      <trkpt lat="43.53169" lon="5.54522">
        <ele>341</ele>
        <time>2011-02-17T20:25:43Z</time>
      </trkpt>
      <trkpt lat="43.53208" lon="5.5476">
        <ele>317</ele>
        <time>2011-02-17T20:25:43Z</time>
      </trkpt>
      <trkpt lat="43.53195" lon="5.54797">
        <ele>310</ele>
        <time>2011-02-17T20:25:43Z</time>
      </trkpt>
      <trkpt lat="43.53131" lon="5.54812">
        <ele>293</ele>
        <time>2011-02-17T20:25:43Z</time>
      </trkpt>
      <trkpt lat="43.53071" lon="5.54829">
        <ele>286</ele>
        <time>2011-02-17T20:25:43Z</time>
      </trkpt>
      <trkpt lat="43.53036" lon="5.54857">
        <ele>278</ele>
        <time>2011-02-17T20:25:43Z</time>
      </trkpt>
      <trkpt lat="43.53002" lon="5.54913">
        <ele>276</ele>
        <time>2011-02-17T20:25:43Z</time>
      </trkpt>
      <trkpt lat="43.5297" lon="5.54928">
        <ele>274</ele>
        <time>2011-02-17T20:25:43Z</time>
      </trkpt>
      <trkpt lat="43.52925" lon="5.54945">
        <ele>271</ele>
        <time>2011-02-17T20:25:43Z</time>
      </trkpt>
      <trkpt lat="43.5286" lon="5.54887">
        <ele>271</ele>
        <time>2011-02-17T20:25:43Z</time>
      </trkpt>
      <trkpt lat="43.528" lon="5.54805">
        <ele>267</ele>
        <time>2011-02-17T20:25:43Z</time>
      </trkpt>
      <trkpt lat="43.52736" lon="5.54807">
        <ele>265</ele>
        <time>2011-02-17T20:25:43Z</time>
      </trkpt>
      <trkpt lat="43.52734" lon="5.54936">
        <ele>273</ele>
        <time>2011-02-17T20:25:43Z</time>
      </trkpt>
      <trkpt lat="43.52869" lon="5.55436">
        <ele>320</ele>
        <time>2011-02-17T20:25:43Z</time>
      </trkpt>
      <trkpt lat="43.52863" lon="5.55606">
        <ele>325</ele>
        <time>2011-02-17T20:25:43Z</time>
      </trkpt>
      <trkpt lat="43.52906" lon="5.55891">
        <ele>341</ele>
        <time>2011-02-17T20:25:43Z</time>
      </trkpt>
      <trkpt lat="43.52938" lon="5.56013">
        <ele>353</ele>
        <time>2011-02-17T20:25:43Z</time>
      </trkpt>
      <trkpt lat="43.52918" lon="5.56035">
        <ele>355</ele>
        <time>2011-02-17T20:25:43Z</time>
      </trkpt>
      <trkpt lat="43.52875" lon="5.55983">
        <ele>361</ele>
        <time>2011-02-17T20:25:43Z</time>
      </trkpt>
      <trkpt lat="43.52787" lon="5.55713">
        <ele>368</ele>
        <time>2011-02-17T20:25:43Z</time>
      </trkpt>
      <trkpt lat="43.52794" lon="5.55835">
        <ele>372</ele>
        <time>2011-02-17T20:25:43Z</time>
      </trkpt>
      <trkpt lat="43.52818" lon="5.56099">
        <ele>394</ele>
        <time>2011-02-17T20:25:43Z</time>
      </trkpt>
      <trkpt lat="43.52858" lon="5.56215">
        <ele>411</ele>
        <time>2011-02-17T20:25:43Z</time>
      </trkpt>
      <trkpt lat="43.52878" lon="5.56421">
        <ele>415</ele>
        <time>2011-02-17T20:25:43Z</time>
      </trkpt>
      <trkpt lat="43.52918" lon="5.56537">
        <ele>416</ele>
        <time>2011-02-17T20:25:43Z</time>
      </trkpt>
      <trkpt lat="43.5289" lon="5.56709">
        <ele>429</ele>
        <time>2011-02-17T20:25:43Z</time>
      </trkpt>
      <trkpt lat="43.52875" lon="5.56751">
        <ele>426</ele>
        <time>2011-02-17T20:25:43Z</time>
      </trkpt>
      <trkpt lat="43.52854" lon="5.56696">
        <ele>418</ele>
        <time>2011-02-17T20:25:43Z</time>
      </trkpt>
      <trkpt lat="43.52826" lon="5.56719">
        <ele>415</ele>
        <time>2011-02-17T20:25:43Z</time>
      </trkpt>
      <trkpt lat="43.52809" lon="5.56704">
        <ele>410</ele>
        <time>2011-02-17T20:25:43Z</time>
      </trkpt>
      <trkpt lat="43.52768" lon="5.5667">
        <ele>409</ele>
        <time>2011-02-17T20:25:43Z</time>
      </trkpt>
      <trkpt lat="43.52734" lon="5.56541">
        <ele>389</ele>
        <time>2011-02-17T20:25:43Z</time>
      </trkpt>
      <trkpt lat="43.52657" lon="5.56582">
        <ele>371</ele>
        <time>2011-02-17T20:25:43Z</time>
      </trkpt>
      <trkpt lat="43.52597" lon="5.56578">
        <ele>364</ele>
        <time>2011-02-17T20:25:43Z</time>
      </trkpt>
      <trkpt lat="43.52573" lon="5.56636">
        <ele>358</ele>
        <time>2011-02-17T20:25:43Z</time>
      </trkpt>
      <trkpt lat="43.52564" lon="5.56533">
        <ele>348</ele>
        <time>2011-02-17T20:25:43Z</time>
      </trkpt>
      <trkpt lat="43.52599" lon="5.56438">
        <ele>351</ele>
        <time>2011-02-17T20:25:43Z</time>
      </trkpt>
      <trkpt lat="43.52618" lon="5.56421">
        <ele>348</ele>
        <time>2011-02-17T20:25:43Z</time>
      </trkpt>
      <trkpt lat="43.52646" lon="5.56421">
        <ele>353</ele>
        <time>2011-02-17T20:25:43Z</time>
      </trkpt>
      <trkpt lat="43.52652" lon="5.56402">
        <ele>351</ele>
        <time>2011-02-17T20:25:43Z</time>
      </trkpt>
      <trkpt lat="43.52637" lon="5.5617">
        <ele>327</ele>
        <time>2011-02-17T20:25:43Z</time>
      </trkpt>
      <trkpt lat="43.52635" lon="5.56093">
        <ele>324</ele>
        <time>2011-02-17T20:25:43Z</time>
      </trkpt>
      <trkpt lat="43.52616" lon="5.56033">
        <ele>322</ele>
        <time>2011-02-17T20:25:43Z</time>
      </trkpt>
      <trkpt lat="43.5262" lon="5.55992">
        <ele>322</ele>
        <time>2011-02-17T20:25:43Z</time>
      </trkpt>
      <trkpt lat="43.5265" lon="5.55975">
        <ele>326</ele>
        <time>2011-02-17T20:25:43Z</time>
      </trkpt>
      <trkpt lat="43.52642" lon="5.55891">
        <ele>321</ele>
        <time>2011-02-17T20:25:43Z</time>
      </trkpt>
      <trkpt lat="43.52642" lon="5.55882">
        <ele>324</ele>
        <time>2011-02-17T20:25:43Z</time>
      </trkpt>
      <trkpt lat="43.52597" lon="5.55797">
        <ele>318</ele>
        <time>2011-02-17T20:25:43Z</time>
      </trkpt>
      <trkpt lat="43.5256" lon="5.55773">
        <ele>313</ele>
        <time>2011-02-17T20:25:43Z</time>
      </trkpt>
      <trkpt lat="43.52521" lon="5.55655">
        <ele>302</ele>
        <time>2011-02-17T20:25:43Z</time>
      </trkpt>
      <trkpt lat="43.52494" lon="5.55619">
        <ele>306</ele>
        <time>2011-02-17T20:25:43Z</time>
      </trkpt>
      <trkpt lat="43.52461" lon="5.55561">
        <ele>301</ele>
        <time>2011-02-17T20:25:43Z</time>
      </trkpt>
      <trkpt lat="43.52451" lon="5.55447">
        <ele>296</ele>
        <time>2011-02-17T20:25:43Z</time>
      </trkpt>
      <trkpt lat="43.52416" lon="5.55389">
        <ele>296</ele>
        <time>2011-02-17T20:25:43Z</time>
      </trkpt>
      <trkpt lat="43.52384" lon="5.5535">
        <ele>293</ele>
        <time>2011-02-17T20:25:43Z</time>
      </trkpt>
      <trkpt lat="43.52356" lon="5.5531">
        <ele>294</ele>
        <time>2011-02-17T20:25:43Z</time>
      </trkpt>
      <trkpt lat="43.52363" lon="5.55264">
        <ele>288</ele>
        <time>2011-02-17T20:25:43Z</time>
      </trkpt>
      <trkpt lat="43.52354" lon="5.55222">
        <ele>289</ele>
        <time>2011-02-17T20:25:43Z</time>
      </trkpt>
      <trkpt lat="43.5226" lon="5.55189">
        <ele>269</ele>
        <time>2011-02-17T20:25:43Z</time>
      </trkpt>
      <trkpt lat="43.52303" lon="5.55151">
        <ele>267</ele>
        <time>2011-02-17T20:25:43Z</time>
      </trkpt>
      <trkpt lat="43.52369" lon="5.55101">
        <ele>280</ele>
        <time>2011-02-17T20:25:43Z</time>
      </trkpt>
      <trkpt lat="43.5238" lon="5.5505">
        <ele>289</ele>
        <time>2011-02-17T20:25:43Z</time>
      </trkpt>
      <trkpt lat="43.52393" lon="5.5499">
        <ele>294</ele>
        <time>2011-02-17T20:25:43Z</time>
      </trkpt>
      <trkpt lat="43.52483" lon="5.54893">
        <ele>294</ele>
        <time>2011-02-17T20:25:43Z</time>
      </trkpt>
      <trkpt lat="43.52545" lon="5.54923">
        <ele>278</ele>
        <time>2011-02-17T20:25:43Z</time>
      </trkpt>
      <trkpt lat="43.52687" lon="5.54857">
        <ele>265</ele>
        <time>2011-02-17T20:25:43Z</time>
      </trkpt>
      <trkpt lat="43.52566" lon="5.54812">
        <ele>264</ele>
        <time>2011-02-17T20:25:43Z</time>
      </trkpt>
      <trkpt lat="43.52549" lon="5.54777">
        <ele>258</ele>
        <time>2011-02-17T20:25:43Z</time>
      </trkpt>
      <trkpt lat="43.5253" lon="5.54734">
        <ele>262</ele>
        <time>2011-02-17T20:25:43Z</time>
      </trkpt>
      <trkpt lat="43.52479" lon="5.54726">
        <ele>255</ele>
        <time>2011-02-17T20:25:43Z</time>
      </trkpt>
      <trkpt lat="43.52423" lon="5.54737">
        <ele>258</ele>
        <time>2011-02-17T20:25:43Z</time>
      </trkpt>
    </trkseg>
  </trk>
</gpx>